KA1ROH Weather Reports


time (UTC)temp
F
wind
direction
speed
knots
gust
knots
rain 1hr
in
rain 24hr
in
rain mn
in
humidity
%
barometer
mb
20260504130220 51 232 1.7 7.0 0.00 0.00 0.00 69 1005.8
20260504120144 50 157 1.7 8.7 0.00 0.00 0.00 74 1005.4
20260504110110 48 219 2.6 6.1 0.00 0.00 0.00 79 1006.1
20260504081651 47 205 1.7 3.5 0.00 0.00 0.00 73 1006.8
20260504080650 47 179 1.7 2.6 0.00 0.00 0.00 72 1006.8
20260504050504 45 96 0.0 0.9 0.00 0.00 0.00 61 1007.1
20260504045504 45 110 0.0 0.9 0.00 0.00 0.00 61 1007.5
20260504044504 44 117 0.9 0.9 0.00 0.00 0.00 63 1007.5
20260504043503 44 125 0.0 0.9 0.00 0.00 0.00 63 1007.5
20260504042502 44 116 0.9 1.7 0.00 0.00 0.00 64 1007.8
20260504041501 44 116 0.9 1.7 0.00 0.00 0.00 64 1007.8
20260504040501 43 122 0.9 0.9 0.00 0.00 0.00 65 1007.8
20260504035500 42 124 0.9 0.9 0.00 0.00 0.00 69 1007.8
20260504034459 41 123 0.9 0.9 0.00 0.00 0.00 70 1007.8
20260504033459 41 122 0.9 0.9 0.00 0.00 0.00 69 1007.8
20260504032427 41 120 0.9 0.9 0.00 0.00 0.00 69 1007.8
20260504031426 41 127 0.9 0.9 0.00 0.00 0.00 69 1007.8
20260504030425 41 131 0.9 1.7 0.00 0.00 0.00 68 1007.8
20260504025425 42 139 0.9 1.7 0.00 0.00 0.00 69 1007.8
20260504024322 42 136 0.9 0.9 0.00 0.00 0.00 69 1007.8
20260504023321 43 125 0.0 1.7 0.00 0.00 0.00 69 1007.8
20260504022321 44 156 0.0 1.7 0.00 0.00 0.00 64 1008.1
20260504021320 45 137 0.9 2.6 0.00 0.01 0.00 60 1008.1
20260504020320 44 147 0.9 2.6 0.00 0.01 0.00 60 1008.1
20260504015319 44 162 0.9 1.7 0.00 0.01 0.00 62 1008.1
20260504014318 43 155 0.9 1.7 0.00 0.01 0.00 66 1008.1
20260504013318 42 131 0.9 0.9 0.00 0.01 0.00 69 1008.1
20260504012317 43 136 0.0 0.9 0.00 0.01 0.00 67 1008.1
20260504011214 44 129 0.9 0.9 0.00 0.01 0.00 67 1007.8
20260504010142 44 135 0.9 0.9 0.00 0.02 0.00 66 1007.8
20260504005142 45 130 0.9 0.9 0.00 0.02 0.00 64 1007.8
20260504004110 45 138 0.9 0.9 0.00 0.02 0.00 63 1007.8
20260504003110 46 134 0.9 1.7 0.00 0.02 0.00 59 1007.8
20260504002109 47 136 0.9 1.7 0.00 0.02 0.00 57 1007.8
20260504001108 48 134 0.0 0.9 0.00 0.03 0.00 56 1007.8
20260504000108 50 142 0.9 0.9 0.00 0.03 0.00 55 1007.5
20260503235107 53 148 0.0 0.0 0.00 0.03 0.00 50 1007.5
20260503234106 54 152 0.0 0.9 0.00 0.03 0.00 44 1007.5
20260503233106 55 153 0.0 2.6 0.00 0.03 0.00 42 1007.5
20260503232105 56 223 0.9 2.6 0.00 0.03 0.00 41 1007.5
20260503231104 56 158 0.9 1.7 0.00 0.03 0.00 40 1007.5
20260503230104 54 195 0.9 1.7 0.00 0.03 0.00 44 1007.5
20260503225103 52 115 0.0 0.9 0.00 0.04 0.00 46 1007.5
20260503224102 52 132 0.0 1.7 0.00 0.04 0.00 45 1007.5
20260503223030 52 297 0.0 1.7 0.00 0.04 0.00 45 1007.5
20260503222029 51 281 0.0 0.9 0.00 0.04 0.00 46 1007.5
20260503221029 52 278 0.0 0.9 0.00 0.04 0.00 46 1007.5
20260503220028 51 278 0.9 0.9 0.00 0.04 0.00 46 1007.5
20260503215027 52 4 0.9 0.9 0.00 0.05 0.00 49 1007.5
20260503214026 52 335 0.0 1.7 0.00 0.05 0.00 47 1007.5
20260503213025 52 328 0.9 2.6 0.00 0.05 0.00 48 1007.5
20260503212025 52 354 1.7 2.6 0.00 0.05 0.00 45 1007.5
20260503211025 52 44 0.0 1.7 0.00 0.05 0.00 47 1007.5
20260503210024 52 347 0.9 1.7 0.00 0.05 0.00 48 1007.5
20260503204850 52 70 0.9 1.7 0.00 0.05 0.00 45 1007.5
20260503203818 51 300 0.9 1.7 0.00 0.05 0.00 49 1007.5
20260503202746 51 43 0.9 0.9 0.00 0.05 0.00 48 1007.5
20260503201745 51 11 0.9 0.9 0.00 0.05 0.00 50 1007.8
20260503200745 51 13 0.9 1.7 0.00 0.05 0.00 50 1007.8
20260503195744 50 5 0.9 2.6 0.00 0.05 0.00 51 1007.8
20260503194744 51 256 0.9 2.6 0.00 0.05 0.00 49 1007.8
20260503193712 50 308 0.9 0.9 0.00 0.05 0.00 50 1008.1
20260503192711 50 288 0.0 1.7 0.00 0.05 0.00 53 1008.1
20260503191710 50 289 0.0 4.3 0.00 0.05 0.00 52 1008.1
20260503190710 49 295 0.9 4.3 0.00 0.05 0.00 54 1008.5
20260503185709 49 341 0.9 2.6 0.00 0.05 0.00 52 1008.5
20260503184708 49 6 0.9 2.6 0.00 0.05 0.00 53 1008.5
20260503183637 49 352 1.7 2.6 0.00 0.05 0.00 54 1008.5
20260503182636 49 287 0.9 2.6 0.00 0.05 0.00 54 1008.8
20260503181605 49 287 1.7 2.6 0.00 0.05 0.00 57 1008.8
20260503180604 48 288 0.0 2.6 0.00 0.05 0.00 54 1008.8
20260503175604 49 312 0.9 5.2 0.00 0.05 0.00 54 1008.8
20260503174532 49 353 1.7 5.2 0.00 0.05 0.00 54 1008.8
20260503173531 48 0 1.7 4.3 0.00 0.05 0.00 57 1008.8
20260503172459 48 326 1.7 6.1 0.00 0.05 0.00 56 1008.8
20260503171459 48 341 2.6 6.1 0.00 0.05 0.00 56 1009.1
20260503170458 48 4 3.5 6.1 0.00 0.05 0.00 58 1009.1
20260503150450 47 331 7.0 9.6 0.00 0.05 0.00 64 1010.2